| time (UTC) | temp F | wind direction | speed MPH | gust MPH | rain 1hr in | rain 24hr in | rain mn in | humidity % | barometer mb |
| 20260905093903 | 57 | 204 | 0.0 | 0.0 | 0.00 | 0.31 | 0.02 | 87 | 1017.4 |
| 20260905093403 | 57 | 204 | 0.0 | 3.0 | 0.00 | 0.31 | 0.02 | 84 | 1017.4 |
| 20260905092903 | 57 | 204 | 2.0 | 6.0 | 0.00 | 0.31 | 0.02 | 87 | 1017.2 |
| 20260905091905 | 55 | 204 | 0.0 | 1.0 | 0.00 | 0.31 | 0.02 | 89 | 1017.2 |
| 20260905091403 | 55 | 204 | 1.0 | 5.0 | 0.00 | 0.31 | 0.02 | 89 | 1017.2 |
| 20260905090904 | 55 | 204 | 0.0 | 0.0 | 0.00 | 0.31 | 0.02 | 91 | 1017.2 |
| 20260905090403 | 55 | 204 | 0.0 | 0.0 | 0.00 | 0.31 | 0.02 | 91 | 1017.2 |
| 20260905085904 | 54 | 204 | 0.0 | 0.0 | 0.00 | 0.31 | 0.02 | 90 | 1017.2 |
| 20260905085404 | 54 | 204 | 0.0 | 6.0 | 0.00 | 0.32 | 0.02 | 90 | 1017.1 |
| 20260905084903 | 54 | 208 | 5.0 | 9.0 | 0.00 | 0.32 | 0.02 | 89 | 1017.0 |
| 20260905084403 | 54 | 212 | 2.0 | 12.0 | 0.00 | 0.32 | 0.02 | 90 | 1016.8 |
| 20260905083403 | 53 | 203 | 1.0 | 3.0 | 0.00 | 0.32 | 0.02 | 91 | 1016.7 |
| 20260905082903 | 53 | 203 | 1.0 | 3.0 | 0.00 | 0.32 | 0.02 | 91 | 1016.6 |
| 20260905082403 | 53 | 203 | 0.0 | 3.0 | 0.00 | 0.33 | 0.02 | 91 | 1016.5 |
| 20260905081903 | 53 | 203 | 2.0 | 6.0 | 0.00 | 0.34 | 0.02 | 91 | 1016.4 |
| 20260905080904 | 53 | 203 | 2.0 | 5.0 | 0.00 | 0.39 | 0.02 | 91 | 1016.1 |
| 20260905080403 | 53 | 203 | 2.0 | 6.0 | 0.00 | 0.40 | 0.02 | 91 | 1016.0 |
| 20260905075404 | 52 | 203 | 1.0 | 6.0 | 0.00 | 0.40 | 0.02 | 91 | 1015.9 |
| 20260905074904 | 53 | 203 | 2.0 | 7.0 | 0.00 | 0.41 | 0.02 | 91 | 1015.9 |
| 20260905074404 | 52 | 206 | 0.0 | 2.0 | 0.00 | 0.41 | 0.02 | 91 | 1015.8 |
| 20260905073903 | 52 | 206 | 3.0 | 6.0 | 0.00 | 0.41 | 0.02 | 91 | 1015.7 |
| 20260905073404 | 52 | 206 | 0.0 | 2.0 | 0.00 | 0.41 | 0.02 | 91 | 1015.7 |
| 20260905072903 | 52 | 206 | 2.0 | 5.0 | 0.00 | 0.41 | 0.02 | 91 | 1015.6 |
| 20260905072403 | 52 | 206 | 0.0 | 2.0 | 0.00 | 0.41 | 0.02 | 91 | 1015.6 |
| 20260905071904 | 52 | 206 | 1.0 | 3.0 | 0.00 | 0.42 | 0.02 | 91 | 1015.6 |
| 20260905070904 | 52 | 206 | 0.0 | 3.0 | 0.00 | 0.43 | 0.02 | 91 | 1015.4 |
| 20260905070403 | 52 | 206 | 1.0 | 5.0 | 0.00 | 0.43 | 0.02 | 91 | 1015.4 |
| 20260905065404 | 52 | 206 | 0.0 | 3.0 | 0.00 | 0.43 | 0.02 | 91 | 1015.1 |
| 20260905064903 | 52 | 206 | 1.0 | 3.0 | 0.00 | 0.43 | 0.02 | 92 | 1015.1 |
| 20260905064403 | 52 | 206 | 2.0 | 7.0 | 0.00 | 0.47 | 0.02 | 92 | 1015.1 |
| 20260905063904 | 52 | 205 | 1.0 | 6.0 | 0.00 | 0.48 | 0.02 | 92 | 1015.0 |
| 20260905063404 | 52 | 205 | 1.0 | 3.0 | 0.00 | 0.49 | 0.02 | 92 | 1015.0 |
| 20260905062903 | 51 | 205 | 1.0 | 5.0 | 0.00 | 0.50 | 0.02 | 92 | 1015.1 |
| 20260905061904 | 52 | 205 | 0.0 | 1.0 | 0.00 | 0.57 | 0.02 | 93 | 1014.9 |
| 20260905061404 | 51 | 205 | 1.0 | 7.0 | 0.00 | 0.63 | 0.02 | 93 | 1014.8 |
| 20260905060904 | 51 | 205 | 1.0 | 8.0 | 0.00 | 0.63 | 0.02 | 93 | 1014.7 |
| 20260905060403 | 51 | 205 | 4.0 | 7.0 | 0.00 | 0.63 | 0.02 | 93 | 1014.6 |
| 20260905055903 | 51 | 205 | 4.0 | 8.0 | 0.00 | 0.63 | 0.02 | 93 | 1014.5 |
| 20260905055404 | 51 | 207 | 2.0 | 6.0 | 0.00 | 0.63 | 0.02 | 93 | 1014.5 |
| 20260905054404 | 51 | 207 | 1.0 | 7.0 | 0.00 | 0.65 | 0.02 | 93 | 1014.3 |
| 20260905053904 | 51 | 207 | 0.0 | 7.0 | 0.00 | 0.67 | 0.02 | 92 | 1014.2 |
| 20260905053404 | 51 | 207 | 3.0 | 7.0 | 0.00 | 0.68 | 0.02 | 92 | 1014.2 |
| 20260905052404 | 51 | 206 | 0.0 | 3.0 | 0.00 | 0.69 | 0.02 | 92 | 1014.1 |
| 20260905051904 | 51 | 206 | 0.0 | 3.0 | 0.00 | 0.69 | 0.02 | 92 | 1014.1 |
| 20260905051404 | 51 | 206 | 1.0 | 5.0 | 0.00 | 0.69 | 0.02 | 92 | 1014.0 |
| 20260905050903 | 51 | 206 | 1.0 | 3.0 | 0.00 | 0.69 | 0.02 | 92 | 1013.9 |
| 20260905050403 | 51 | 206 | 0.0 | 3.0 | 0.00 | 0.69 | 0.02 | 92 | 1013.9 |
| 20260905045904 | 51 | 206 | 1.0 | 3.0 | 0.00 | 0.69 | 0.02 | 92 | 1013.8 |
| 20260905045404 | 51 | 206 | 1.0 | 5.0 | 0.00 | 0.69 | 0.02 | 92 | 1013.7 |
| 20260905044905 | 51 | 206 | 1.0 | 7.0 | 0.00 | 0.69 | 0.02 | 91 | 1013.8 |
| 20260905043904 | 51 | 207 | 2.0 | 7.0 | 0.00 | 0.69 | 0.02 | 91 | 1013.6 |
| 20260905043404 | 51 | 206 | 1.0 | 7.0 | 0.00 | 0.69 | 0.02 | 91 | 1013.6 |
| 20260905042904 | 52 | 205 | 1.0 | 7.0 | 0.00 | 0.69 | 0.02 | 91 | 1013.6 |
| 20260905042404 | 52 | 205 | 1.0 | 3.0 | 0.00 | 0.69 | 0.02 | 91 | 1013.6 |
| 20260905041905 | 52 | 205 | 1.0 | 3.0 | 0.00 | 0.70 | 0.02 | 91 | 1013.6 |
| 20260905041404 | 52 | 206 | 3.0 | 7.0 | 0.00 | 0.72 | 0.02 | 91 | 1013.5 |
| 20260905040904 | 52 | 208 | 2.0 | 7.0 | 0.00 | 0.73 | 0.02 | 91 | 1013.6 |
| 20260905040404 | 52 | 208 | 1.0 | 5.0 | 0.00 | 0.74 | 0.02 | 91 | 1013.6 |
| 20260905035904 | 52 | 208 | 0.0 | 7.0 | 0.00 | 0.74 | 0.02 | 91 | 1013.5 |
| 20260905035404 | 52 | 208 | 3.0 | 5.0 | 0.00 | 0.74 | 0.02 | 91 | 1013.4 |
| 20260905034904 | 52 | 209 | 2.0 | 6.0 | 0.00 | 0.74 | 0.02 | 92 | 1013.4 |
| 20260905034403 | 53 | 208 | 1.0 | 6.0 | 0.00 | 0.74 | 0.02 | 92 | 1013.4 |
| 20260905033904 | 53 | 208 | 1.0 | 3.0 | 0.00 | 0.74 | 0.02 | 92 | 1013.4 |
| 20260905033404 | 53 | 208 | 1.0 | 7.0 | 0.01 | 0.74 | 0.02 | 92 | 1013.4 |
| 20260905032904 | 53 | 207 | 2.0 | 6.0 | 0.01 | 0.74 | 0.02 | 92 | 1013.2 |
| 20260905032404 | 53 | 207 | 1.0 | 6.0 | 0.01 | 0.74 | 0.02 | 92 | 1013.2 |
| 20260905031904 | 53 | 207 | 2.0 | 5.0 | 0.01 | 0.74 | 0.02 | 92 | 1013.2 |
| 20260905031404 | 52 | 207 | 1.0 | 8.0 | 0.01 | 0.74 | 0.02 | 92 | 1013.2 |
| 20260905030904 | 52 | 206 | 1.0 | 7.0 | 0.01 | 0.74 | 0.02 | 92 | 1013.1 |
| 20260905030404 | 52 | 204 | 4.0 | 7.0 | 0.01 | 0.74 | 0.02 | 92 | 1013.1 |
| 20260905025405 | 52 | 204 | 3.0 | 9.0 | 0.01 | 0.74 | 0.02 | 93 | 1013.1 |
| 20260905024405 | 52 | 263 | 0.0 | 3.0 | 0.01 | 0.74 | 0.02 | 93 | 1013.0 |
| 20260905023403 | 52 | 267 | 1.0 | 5.0 | 0.00 | 0.73 | 0.01 | 93 | 1012.5 |
| 20260905022903 | 52 | 267 | 2.0 | 7.0 | 0.00 | 0.73 | 0.01 | 93 | 1012.4 |
| 20260905022404 | 52 | 245 | 0.0 | 2.0 | 0.00 | 0.74 | 0.01 | 93 | 1012.4 |
| 20260905021404 | 52 | 245 | 1.0 | 3.0 | 0.00 | 0.75 | 0.01 | 93 | 1012.3 |
| 20260905020904 | 52 | 245 | 2.0 | 8.0 | 0.00 | 0.75 | 0.01 | 93 | 1012.1 |
| 20260905015904 | 52 | 238 | 0.0 | 3.0 | 0.00 | 0.75 | 0.01 | 92 | 1012.3 |
| 20260905015406 | 52 | 239 | 2.0 | 8.0 | 0.01 | 0.76 | 0.01 | 92 | 1012.1 |
| 20260905014905 | 52 | 247 | 1.0 | 3.0 | 0.01 | 0.76 | 0.01 | 92 | 1012.1 |
| 20260905014406 | 52 | 247 | 0.0 | 1.0 | 0.01 | 0.76 | 0.01 | 92 | 1012.2 |
| 20260905013404 | 52 | 247 | 2.0 | 8.0 | 0.01 | 0.76 | 0.01 | 91 | 1012.2 |
| 20260905012904 | 52 | 260 | 2.0 | 3.0 | 0.01 | 0.76 | 0.01 | 90 | 1011.9 |
| 20260905012405 | 52 | 261 | 1.0 | 3.0 | 0.01 | 0.76 | 0.01 | 90 | 1011.9 |
| 20260905011905 | 52 | 261 | 2.0 | 5.0 | 0.01 | 0.76 | 0.01 | 90 | 1011.9 |
| 20260905010905 | 53 | 263 | 3.0 | 9.0 | 0.01 | 0.76 | 0.01 | 90 | 1011.9 |
| 20260905010405 | 53 | 206 | 3.0 | 12.0 | 0.01 | 0.76 | 0.01 | 90 | 1011.9 |
| 20260905005905 | 53 | 321 | 2.0 | 8.0 | 0.01 | 0.76 | 0.01 | 90 | 1011.8 |
| 20260905005405 | 53 | 295 | 1.0 | 9.0 | 0.00 | 0.75 | 0.00 | 90 | 1011.5 |
| 20260905004905 | 53 | 275 | 0.0 | 1.0 | 0.00 | 0.75 | 0.00 | 90 | 1011.2 |
| 20260905003904 | 53 | 275 | 1.0 | 8.0 | 0.00 | 0.75 | 0.00 | 90 | 1011.1 |
| 20260905003404 | 53 | 234 | 2.0 | 8.0 | 0.00 | 0.75 | 0.00 | 90 | 1011.2 |
| 20260905002904 | 53 | 309 | 2.0 | 9.0 | 0.00 | 0.75 | 0.00 | 90 | 1011.0 |
| 20260905002404 | 53 | 212 | 3.0 | 7.0 | 0.00 | 0.75 | 0.00 | 90 | 1011.0 |
| 20260905001904 | 53 | 205 | 2.0 | 10.0 | 0.00 | 0.75 | 0.00 | 91 | 1011.0 |
| 20260905001404 | 53 | 193 | 2.0 | 6.0 | 0.00 | 0.75 | 0.00 | 91 | 1010.8 |
| 20260905000404 | 53 | 192 | 4.0 | 8.0 | 0.00 | 0.75 | 0.00 | 92 | 1010.7 |
| 20260904235903 | 53 | 213 | 2.0 | 5.0 | 0.00 | 0.75 | 0.00 | 92 | 1010.7 |
| 20260904235404 | 52 | 213 | 2.0 | 8.0 | 0.00 | 0.75 | 0.00 | 92 | 1010.7 |
| 20260904234904 | 52 | 272 | 4.0 | 10.0 | 0.00 | 0.75 | 0.00 | 93 | 1010.6 |
| 20260904232904 | 52 | 246 | 2.0 | 7.0 | 0.00 | 0.75 | 0.00 | 94 | 1010.0 |
| 20260904232403 | 52 | 246 | 3.0 | 8.0 | 0.00 | 0.75 | 0.00 | 94 | 1010.0 |
| 20260904231904 | 52 | 182 | 0.0 | 1.0 | 0.01 | 0.75 | 0.00 | 94 | 1009.9 |
| 20260904230904 | 52 | 182 | 0.0 | 0.0 | 0.01 | 0.75 | 0.00 | 94 | 1009.9 |
| 20260904230404 | 52 | 182 | 1.0 | 5.0 | 0.01 | 0.75 | 0.00 | 94 | 1009.9 |
| 20260904225903 | 52 | 182 | 1.0 | 6.0 | 0.01 | 0.75 | 0.75 | 94 | 1009.8 |
| 20260904225404 | 52 | 186 | 0.0 | 2.0 | 0.01 | 0.75 | 0.75 | 94 | 1009.8 |
| 20260904224905 | 52 | 193 | 2.0 | 9.0 | 0.01 | 0.75 | 0.75 | 95 | 1009.9 |
| 20260904224404 | 52 | 186 | 1.0 | 5.0 | 0.01 | 0.75 | 0.75 | 95 | 1009.8 |
| 20260904223905 | 53 | 186 | 0.0 | 3.0 | 0.01 | 0.75 | 0.75 | 95 | 1009.5 |
| 20260904222905 | 53 | 186 | 0.0 | 3.0 | 0.01 | 0.75 | 0.75 | 95 | 1009.4 |
| 20260904222405 | 53 | 186 | 0.0 | 1.0 | 0.01 | 0.75 | 0.75 | 95 | 1009.3 |
| 20260904221904 | 53 | 186 | 0.0 | 3.0 | 0.00 | 0.74 | 0.74 | 95 | 1009.3 |
| 20260904220904 | 53 | 186 | 0.0 | 7.0 | 0.00 | 0.75 | 0.74 | 95 | 1009.2 |
| 20260904220404 | 53 | 180 | 0.0 | 3.0 | 0.00 | 0.75 | 0.74 | 95 | 1009.2 |
| 20260904215904 | 53 | 180 | 1.0 | 5.0 | 0.00 | 0.75 | 0.74 | 95 | 1009.2 |
| 20260904215405 | 53 | 180 | 1.0 | 3.0 | 0.00 | 0.75 | 0.74 | 95 | 1009.1 |
| 20260904214904 | 53 | 180 | 0.0 | 2.0 | 0.00 | 0.76 | 0.74 | 95 | 1009.0 |
| 20260904214405 | 53 | 180 | 0.0 | 3.0 | 0.00 | 0.76 | 0.74 | 95 | 1008.9 |
| 20260904213904 | 53 | 180 | 0.0 | 2.0 | 0.00 | 0.76 | 0.74 | 95 | 1008.9 |
| 20260904213404 | 53 | 180 | 2.0 | 6.0 | 0.00 | 0.77 | 0.74 | 95 | 1008.8 |
| 20260904212404 | 53 | 180 | 1.0 | 7.0 | 0.02 | 0.78 | 0.74 | 94 | 1008.6 |
| 20260904211904 | 53 | 177 | 1.0 | 3.0 | 0.02 | 0.80 | 0.74 | 94 | 1008.4 |
| 20260904211404 | 54 | 177 | 0.0 | 0.0 | 0.04 | 0.81 | 0.74 | 94 | 1008.3 |
| 20260904210904 | 54 | 177 | 0.0 | 2.0 | 0.05 | 0.83 | 0.74 | 95 | 1008.2 |
| 20260904210404 | 54 | 177 | 0.0 | 3.0 | 0.05 | 0.85 | 0.74 | 94 | 1008.1 |
| 20260904205404 | 54 | 177 | 0.0 | 2.0 | 0.06 | 0.86 | 0.74 | 94 | 1008.1 |
| 20260904204905 | 54 | 177 | 1.0 | 5.0 | 0.11 | 0.86 | 0.74 | 94 | 1008.1 |
| 20260904204405 | 54 | 173 | 1.0 | 3.0 | 0.20 | 0.86 | 0.74 | 94 | 1008.0 |
| 20260904203905 | 54 | 173 | 1.0 | 3.0 | 0.21 | 0.87 | 0.74 | 94 | 1007.8 |
| 20260904203405 | 54 | 173 | 2.0 | 5.0 | 0.21 | 0.87 | 0.74 | 94 | 1007.9 |
| 20260904202905 | 54 | 167 | 1.0 | 3.0 | 0.20 | 0.88 | 0.73 | 94 | 1007.8 |
| 20260904202405 | 54 | 167 | 0.0 | 0.0 | 0.20 | 0.91 | 0.72 | 94 | 1007.9 |
| 20260904201906 | 54 | 167 | 0.0 | 0.0 | 0.19 | 0.91 | 0.72 | 94 | 1007.7 |
| 20260904201405 | 54 | 167 | 0.0 | 0.0 | 0.17 | 0.90 | 0.70 | 93 | 1007.6 |
| 20260904200406 | 54 | 167 | 1.0 | 3.0 | 0.18 | 0.90 | 0.69 | 93 | 1007.7 |
| 20260904195904 | 55 | 167 | 0.0 | 6.0 | 0.18 | 0.89 | 0.69 | 93 | 1007.5 |
| 20260904195405 | 55 | 184 | 2.0 | 3.0 | 0.17 | 0.88 | 0.68 | 93 | 1007.6 |
| 20260904194906 | 55 | 185 | 2.0 | 7.0 | 0.13 | 0.83 | 0.63 | 93 | 1007.6 |
| 20260904193404 | 55 | 169 | 2.0 | 6.0 | 0.02 | 0.73 | 0.53 | 93 | 1007.3 |
| 20260904192905 | 55 | 169 | 0.0 | 5.0 | 0.02 | 0.73 | 0.53 | 92 | 1007.4 |
| 20260904192404 | 55 | 169 | 2.0 | 9.0 | 0.02 | 0.75 | 0.53 | 92 | 1007.4 |
| 20260904191905 | 55 | 210 | 1.0 | 7.0 | 0.02 | 0.76 | 0.53 | 92 | 1007.3 |
| 20260904191404 | 55 | 210 | 2.0 | 7.0 | 0.02 | 0.79 | 0.53 | 92 | 1007.2 |
| 20260904190905 | 55 | 210 | 5.0 | 8.0 | 0.02 | 0.78 | 0.52 | 92 | 1007.2 |
| 20260904185904 | 55 | 208 | 5.0 | 9.0 | 0.00 | 0.76 | 0.50 | 91 | 1007.0 |
| 20260904185404 | 55 | 212 | 4.0 | 10.0 | 0.00 | 0.76 | 0.50 | 91 | 1007.1 |
| 20260904184904 | 55 | 214 | 6.0 | 10.0 | 0.00 | 0.76 | 0.50 | 90 | 1007.0 |
| 20260904184404 | 55 | 216 | 5.0 | 8.0 | 0.00 | 0.77 | 0.50 | 90 | 1007.0 |
| 20260904183904 | 56 | 211 | 2.0 | 7.0 | 0.00 | 0.77 | 0.50 | 90 | 1007.1 |
| 20260904183404 | 56 | 211 | 4.0 | 13.0 | 0.00 | 0.77 | 0.50 | 90 | 1007.0 |
| 20260904182904 | 56 | 213 | 2.0 | 7.0 | 0.00 | 0.77 | 0.50 | 91 | 1007.0 |
| 20260904182404 | 56 | 213 | 4.0 | 8.0 | 0.00 | 0.77 | 0.50 | 91 | 1007.0 |
| 20260904181405 | 56 | 221 | 3.0 | 8.0 | 0.00 | 0.77 | 0.50 | 92 | 1007.0 |
| 20260904180904 | 56 | 227 | 0.0 | 5.0 | 0.00 | 0.77 | 0.50 | 92 | 1006.9 |
| 20260904180405 | 56 | 227 | 2.0 | 6.0 | 0.01 | 0.77 | 0.50 | 92 | 1006.7 |
| 20260904175405 | 56 | 232 | 1.0 | 5.0 | 0.02 | 0.77 | 0.50 | 92 | 1006.8 |
| 20260904174404 | 56 | 234 | 0.0 | 7.0 | 0.02 | 0.85 | 0.50 | 93 | 1006.8 |
| 20260904173905 | 56 | 238 | 2.0 | 5.0 | 0.02 | 0.86 | 0.50 | 93 | 1006.8 |
| 20260904173404 | 56 | 238 | 1.0 | 3.0 | 0.02 | 0.87 | 0.50 | 93 | 1006.7 |
| 20260904172405 | 56 | 238 | 0.0 | 1.0 | 0.02 | 0.91 | 0.50 | 91 | 1006.7 |
| 20260904171905 | 56 | 238 | 1.0 | 6.0 | 0.02 | 0.91 | 0.50 | 90 | 1006.7 |
| 20260904170905 | 56 | 175 | 2.0 | 10.0 | 0.02 | 0.91 | 0.50 | 88 | 1006.5 |
| 20260904170404 | 57 | 261 | 3.0 | 9.0 | 0.02 | 0.90 | 0.50 | 86 | 1006.4 |
| 20260904165904 | 57 | 263 | 3.0 | 8.0 | 0.01 | 0.89 | 0.49 | 85 | 1006.7 |
| 20260904164905 | 57 | 280 | 1.0 | 10.0 | 0.00 | 0.89 | 0.48 | 85 | 1006.3 |
| 20260904164406 | 58 | 273 | 3.0 | 7.0 | 0.00 | 0.89 | 0.48 | 84 | 1006.2 |
| 20260904163905 | 59 | 263 | 3.0 | 8.0 | 0.00 | 0.89 | 0.48 | 81 | 1006.2 |
| 20260904162904 | 61 | 196 | 3.0 | 7.0 | 0.00 | 0.89 | 0.48 | 77 | 1005.8 |
| 20260904162405 | 61 | 241 | 2.0 | 7.0 | 0.00 | 0.89 | 0.48 | 73 | 1005.6 |
| 20260904161904 | 62 | 178 | 2.0 | 10.0 | 0.00 | 0.89 | 0.48 | 74 | 1005.8 |
| 20260904161405 | 62 | 257 | 3.0 | 6.0 | 0.00 | 0.89 | 0.48 | 74 | 1005.6 |
| 20260904160405 | 64 | 276 | 2.0 | 10.0 | 0.00 | 0.89 | 0.48 | 71 | 1005.5 |
| 20260904155905 | 63 | 258 | 2.0 | 5.0 | 0.00 | 0.89 | 0.48 | 72 | 1005.4 |
| 20260904155404 | 63 | 266 | 2.0 | 7.0 | 0.00 | 0.89 | 0.48 | 74 | 1005.2 |
| 20260904154905 | 62 | 261 | 2.0 | 6.0 | 0.00 | 0.89 | 0.48 | 76 | 1005.2 |
| 20260904154405 | 62 | 269 | 2.0 | 7.0 | 0.00 | 0.89 | 0.48 | 73 | 1005.1 |
| 20260904153905 | 62 | 217 | 5.0 | 13.0 | 0.00 | 0.89 | 0.48 | 74 | 1004.9 |
| 20260904152904 | 62 | 234 | 2.0 | 7.0 | 0.00 | 0.89 | 0.48 | 79 | 1004.9 |
| 20260904152405 | 61 | 9 | 1.0 | 9.0 | 0.00 | 0.89 | 0.48 | 79 | 1004.9 |
| 20260904151905 | 61 | 267 | 3.0 | 7.0 | 0.00 | 0.89 | 0.48 | 78 | 1004.8 |
| 20260904151405 | 60 | 233 | 2.0 | 13.0 | 0.00 | 0.89 | 0.48 | 83 | 1004.7 |
| 20260904150905 | 59 | 203 | 4.0 | 12.0 | 0.00 | 0.89 | 0.48 | 79 | 1004.8 |
| 20260904150405 | 59 | 338 | 5.0 | 10.0 | 0.00 | 0.89 | 0.48 | 80 | 1004.7 |
| 20260904145904 | 60 | 237 | 4.0 | 9.0 | 0.00 | 0.89 | 0.48 | 83 | 1004.6 |
| 20260904144905 | 60 | 243 | 3.0 | 10.0 | 0.00 | 0.89 | 0.48 | 81 | 1004.4 |
| 20260904144405 | 60 | 228 | 3.0 | 7.0 | 0.00 | 0.89 | 0.48 | 80 | 1004.3 |
| 20260904143405 | 60 | 226 | 3.0 | 8.0 | 0.00 | 0.90 | 0.48 | 81 | 1004.2 |
| 20260904142905 | 59 | 196 | 1.0 | 8.0 | 0.00 | 0.90 | 0.48 | 82 | 1004.3 |
| 20260904142404 | 60 | 243 | 3.0 | 14.0 | 0.00 | 0.90 | 0.48 | 81 | 1004.1 |
| 20260904141905 | 59 | 266 | 4.0 | 12.0 | 0.00 | 0.90 | 0.48 | 85 | 1004.0 |
| 20260904141405 | 59 | 235 | 3.0 | 14.0 | 0.00 | 0.90 | 0.48 | 83 | 1004.0 |
| 20260904140905 | 59 | 220 | 3.0 | 8.0 | 0.00 | 0.91 | 0.48 | 86 | 1003.9 |
| 20260904140404 | 58 | 209 | 3.0 | 9.0 | 0.00 | 0.91 | 0.48 | 86 | 1003.9 |
| 20260904135906 | 59 | 200 | 5.0 | 12.0 | 0.00 | 0.91 | 0.48 | 86 | 1003.8 |
| 20260904135405 | 59 | 210 | 3.0 | 9.0 | 0.00 | 0.91 | 0.48 | 86 | 1003.8 |
| 20260904134905 | 59 | 228 | 3.0 | 13.0 | 0.00 | 0.91 | 0.48 | 87 | 1003.9 |
| 20260904134405 | 58 | 289 | 3.0 | 10.0 | 0.00 | 0.91 | 0.48 | 85 | 1003.7 |
| 20260904133904 | 58 | 208 | 5.0 | 10.0 | 0.00 | 0.93 | 0.48 | 88 | 1003.7 |
| 20260904133404 | 58 | 207 | 5.0 | 12.0 | 0.00 | 0.93 | 0.48 | 89 | 1003.7 |
| 20260904132904 | 57 | 206 | 5.0 | 9.0 | 0.00 | 0.93 | 0.48 | 89 | 1003.7 |
| 20260904131905 | 57 | 253 | 2.0 | 10.0 | 0.00 | 0.93 | 0.48 | 92 | 1003.7 |
| 20260904130904 | 57 | 219 | 3.0 | 10.0 | 0.02 | 0.93 | 0.48 | 90 | 1003.3 |
| 20260904130404 | 56 | 222 | 3.0 | 10.0 | 0.02 | 0.93 | 0.48 | 91 | 1003.2 |
| 20260904125404 | 57 | 167 | 2.0 | 10.0 | 0.02 | 0.93 | 0.48 | 90 | 1003.0 |
| 20260904124904 | 56 | 228 | 3.0 | 14.0 | 0.02 | 0.93 | 0.48 | 90 | 1002.9 |
| 20260904124404 | 56 | 174 | 3.0 | 9.0 | 0.02 | 0.93 | 0.48 | 89 | 1002.8 |
| 20260904123904 | 56 | 294 | 4.0 | 20.0 | 0.02 | 0.93 | 0.48 | 89 | 1002.8 |
| 20260904123405 | 56 | 248 | 2.0 | 8.0 | 0.02 | 0.93 | 0.48 | 91 | 1002.7 |
| 20260904122905 | 56 | 219 | 3.0 | 10.0 | 0.02 | 0.93 | 0.48 | 92 | 1002.7 |
| 20260904121905 | 56 | 192 | 0.0 | 5.0 | 0.02 | 0.93 | 0.48 | 93 | 1002.6 |
| 20260904120904 | 56 | 215 | 2.0 | 8.0 | 0.01 | 0.91 | 0.46 | 91 | 1002.5 |
| 20260904120405 | 56 | 220 | 2.0 | 9.0 | 0.01 | 0.91 | 0.46 | 91 | 1002.4 |
| 20260904115905 | 56 | 261 | 4.0 | 10.0 | 0.01 | 0.91 | 0.46 | 91 | 1002.4 |
| 20260904115405 | 56 | 221 | 5.0 | 10.0 | 0.01 | 0.91 | 0.46 | 92 | 1002.4 |
| 20260904114906 | 55 | 246 | 3.0 | 8.0 | 0.01 | 0.91 | 0.46 | 91 | 1002.2 |
| 20260904114405 | 55 | 219 | 3.0 | 13.0 | 0.00 | 0.91 | 0.46 | 91 | 1002.3 |
| 20260904113406 | 56 | 255 | 1.0 | 3.0 | 0.00 | 0.91 | 0.46 | 92 | 1002.0 |
| 20260904112405 | 56 | 219 | 3.0 | 8.0 | 0.01 | 0.91 | 0.46 | 92 | 1001.7 |
| 20260904111905 | 56 | 221 | 3.0 | 10.0 | 0.01 | 0.91 | 0.46 | 92 | 1001.6 |
| 20260904111405 | 56 | 238 | 3.0 | 7.0 | 0.01 | 0.91 | 0.46 | 90 | 1001.6 |
| 20260904110905 | 55 | 242 | 3.0 | 14.0 | 0.01 | 0.91 | 0.46 | 92 | 1001.5 |
| 20260904110405 | 55 | 215 | 4.0 | 12.0 | 0.01 | 0.91 | 0.46 | 92 | 1001.6 |
| 20260904105905 | 55 | 209 | 2.0 | 12.0 | 0.01 | 0.91 | 0.46 | 92 | 1001.3 |
| 20260904105405 | 55 | 213 | 3.0 | 8.0 | 0.01 | 0.91 | 0.46 | 91 | 1001.4 |
| 20260904104905 | 55 | 236 | 2.0 | 10.0 | 0.01 | 0.91 | 0.46 | 92 | 1001.5 |
| 20260904103905 | 55 | 225 | 2.0 | 3.0 | 0.01 | 0.91 | 0.46 | 93 | 1001.4 |
| 20260904102906 | 55 | 225 | 2.0 | 6.0 | 0.00 | 0.90 | 0.45 | 93 | 1001.4 |
| 20260904102405 | 55 | 226 | 5.0 | 9.0 | 0.00 | 0.90 | 0.45 | 91 | 1001.2 |
| 20260904101905 | 56 | 242 | 1.0 | 12.0 | 0.00 | 0.90 | 0.45 | 90 | 1001.0 |
| 20260904101405 | 56 | 338 | 4.0 | 12.0 | 0.00 | 0.90 | 0.45 | 91 | 1000.6 |
| 20260904100904 | 56 | 275 | 1.0 | 3.0 | 0.00 | 0.90 | 0.45 | 92 | 1000.7 |
| 20260904100405 | 56 | 275 | 1.0 | 6.0 | 0.00 | 0.90 | 0.45 | 92 | 1000.6 |
| 20260904095906 | 56 | 292 | 1.0 | 5.0 | 0.00 | 0.90 | 0.45 | 91 | 1000.6 |
| 20260904094405 | 55 | 221 | 0.0 | 3.0 | 0.01 | 0.90 | 0.45 | 93 | 1000.4 |